| time (UTC) | temp C | wind direction | speed KPH | gust KPH | rain 1hr cm | rain 24hr cm | rain mn cm | humidity % | barometer mb |
| 20260510193128 | 16 | 270 | 0.0 | 4.8 | 0.00 | 1.57 | 0.00 | 83 | 1014.1 |
| 20260510191527 | 17 | 124 | 0.0 | 6.4 | 0.00 | 1.57 | 0.00 | 82 | 1014.5 |
| 20260510190029 | 17 | 127 | 0.0 | 8.0 | 0.00 | 1.65 | 0.00 | 82 | 1014.4 |
| 20260510184507 | 18 | 170 | 1.6 | 11.3 | 0.00 | 1.65 | 0.00 | 81 | 1014.5 |
| 20260510183007 | 18 | 136 | 1.6 | 9.7 | 0.00 | 1.65 | 0.00 | 81 | 1014.3 |
| 20260510181554 | 18 | 147 | 1.6 | 9.7 | 0.00 | 1.65 | 0.00 | 82 | 1014.6 |
| 20260510180045 | 17 | 165 | 0.0 | 11.3 | 0.00 | 1.65 | 0.00 | 84 | 1014.8 |
| 20260510174525 | 16 | 161 | 3.2 | 9.7 | 0.00 | 1.65 | 0.00 | 86 | 1014.8 |
| 20260510173023 | 16 | 84 | 1.6 | 9.7 | 0.00 | 1.65 | 0.00 | 85 | 1014.6 |
| 20260510171509 | 16 | 302 | 1.6 | 9.7 | 0.00 | 1.65 | 0.00 | 86 | 1014.6 |
| 20260510170005 | 16 | 124 | 0.0 | 6.4 | 0.00 | 1.65 | 0.00 | 86 | 1014.7 |
| 20260510164550 | 16 | 155 | 0.0 | 3.2 | 0.00 | 1.65 | 0.00 | 86 | 1014.7 |
| 20260510163047 | 15 | 141 | 1.6 | 8.0 | 0.00 | 1.65 | 0.00 | 85 | 1014.8 |
| 20260510161532 | 16 | 107 | 0.0 | 8.0 | 0.00 | 1.65 | 0.00 | 86 | 1014.9 |
| 20260510160034 | 15 | 82 | 1.6 | 11.3 | 0.00 | 1.65 | 0.00 | 85 | 1014.8 |
| 20260510154513 | 15 | 160 | 0.0 | 8.0 | 0.00 | 1.65 | 0.00 | 87 | 1014.9 |
| 20260510153009 | 15 | 242 | 0.0 | 9.7 | 0.00 | 1.65 | 0.00 | 88 | 1015.2 |
| 20260510151505 | 14 | 159 | 1.6 | 6.4 | 0.00 | 1.65 | 0.00 | 88 | 1015.1 |
| 20260510150002 | 13 | 294 | 0.0 | 6.4 | 0.00 | 1.65 | 0.00 | 92 | 1015.0 |
| 20260510144602 | 12 | 148 | 0.0 | 4.8 | 0.00 | 1.65 | 0.00 | 92 | 1014.8 |
| 20260510143058 | 12 | 126 | 0.0 | 4.8 | 0.00 | 1.65 | 0.00 | 92 | 1014.8 |
| 20260510141559 | 12 | 238 | 0.0 | 8.0 | 0.00 | 1.65 | 0.00 | 91 | 1014.7 |
| 20260510140058 | 12 | 163 | 0.0 | 6.4 | 0.00 | 1.65 | 0.00 | 91 | 1014.7 |
| 20260510134604 | 12 | 114 | 0.0 | 4.8 | 0.00 | 1.65 | 0.00 | 92 | 1014.7 |
| 20260510133037 | 12 | 135 | 0.0 | 1.6 | 0.00 | 1.65 | 0.00 | 93 | 1014.7 |
| 20260510131536 | 12 | 104 | 0.0 | 1.6 | 0.00 | 1.65 | 0.00 | 94 | 1014.6 |
| 20260510130017 | 12 | 4 | 0.0 | 0.0 | 0.00 | 1.65 | 0.00 | 94 | 1014.6 |
| 20260510124514 | 12 | 311 | 0.0 | 3.2 | 0.00 | 1.65 | 0.00 | 94 | 1014.5 |
| 20260510123059 | 11 | 217 | 0.0 | 1.6 | 0.00 | 1.65 | 0.00 | 95 | 1014.3 |
| 20260510121554 | 11 | 288 | 0.0 | 4.8 | 0.00 | 1.65 | 0.00 | 95 | 1014.4 |
| 20260510120034 | 11 | 270 | 0.0 | 3.2 | 0.00 | 1.65 | 0.00 | 95 | 1013.9 |
| 20260510114537 | 11 | 109 | 0.0 | 1.6 | 0.00 | 1.65 | 0.00 | 95 | 1013.6 |
| 20260510113014 | 11 | 37 | 0.0 | 0.0 | 0.00 | 1.65 | 0.00 | 96 | 1013.8 |
| 20260510111514 | 11 | 96 | 0.0 | 1.6 | 0.00 | 1.65 | 0.00 | 96 | 1013.9 |
| 20260510110054 | 10 | 96 | 0.0 | 6.4 | 0.00 | 1.65 | 0.00 | 96 | 1013.4 |
| 20260510104555 | 10 | 176 | 0.0 | 4.8 | 0.00 | 1.65 | 0.00 | 96 | 1013.5 |
| 20260510103038 | 10 | 82 | 0.0 | 0.0 | 0.00 | 1.65 | 0.00 | 95 | 1013.7 |
| 20260510101536 | 10 | 82 | 0.0 | 0.0 | 0.00 | 1.65 | 0.00 | 95 | 1013.7 |
| 20260510100016 | 10 | 82 | 0.0 | 0.0 | 0.00 | 1.65 | 0.00 | 95 | 1013.7 |
| 20260510094531 | 10 | 82 | 0.0 | 0.0 | 0.00 | 1.65 | 0.00 | 95 | 1013.9 |
| 20260510093056 | 11 | 82 | 0.0 | 1.6 | 0.00 | 1.65 | 0.00 | 95 | 1013.9 |
| 20260510091556 | 11 | 96 | 0.0 | 0.0 | 0.00 | 1.65 | 0.00 | 95 | 1014.0 |
| 20260510090039 | 11 | 96 | 0.0 | 0.0 | 0.00 | 1.68 | 0.00 | 95 | 1014.1 |
| 20260510084537 | 11 | 96 | 0.0 | 0.0 | 0.00 | 1.68 | 0.00 | 95 | 1014.1 |
| 20260510083023 | 10 | 96 | 0.0 | 0.0 | 0.00 | 1.68 | 0.00 | 95 | 1013.4 |
| 20260510081533 | 11 | 96 | 0.0 | 0.0 | 0.00 | 1.68 | 0.00 | 95 | 1013.1 |
| 20260510080020 | 11 | 104 | 0.0 | 0.0 | 0.00 | 1.68 | 0.00 | 95 | 1012.9 |
| 20260510074520 | 11 | 103 | 0.0 | 0.0 | 0.00 | 1.68 | 0.00 | 95 | 1013.0 |
| 20260510073019 | 11 | 103 | 0.0 | 0.0 | 0.00 | 1.68 | 0.00 | 95 | 1013.2 |
| 20260510071520 | 11 | 103 | 0.0 | 0.0 | 0.00 | 1.68 | 0.00 | 95 | 1013.2 |
| 20260510070021 | 11 | 103 | 0.0 | 0.0 | 0.00 | 1.68 | 0.00 | 95 | 1013.3 |
| 20260510064520 | 11 | 103 | 0.0 | 0.0 | 0.00 | 1.68 | 0.00 | 95 | 1013.1 |
| 20260510063105 | 11 | 104 | 0.0 | 0.0 | 0.00 | 1.68 | 0.00 | 95 | 1012.9 |
| 20260510061605 | 11 | 104 | 0.0 | 0.0 | 0.00 | 1.68 | 0.00 | 95 | 1012.7 |
| 20260510060038 | 11 | 104 | 0.0 | 1.6 | 0.00 | 1.68 | 0.00 | 95 | 1012.8 |
| 20260510054546 | 11 | 38 | 0.0 | 0.0 | 0.00 | 1.68 | 0.00 | 95 | 1012.9 |
| 20260510053020 | 11 | 38 | 0.0 | 0.0 | 0.00 | 1.68 | 0.00 | 95 | 1013.0 |
| 20260510051529 | 11 | 38 | 0.0 | 0.0 | 0.00 | 1.68 | 0.00 | 95 | 1013.0 |
| 20260510050007 | 11 | 38 | 0.0 | 0.0 | 0.00 | 1.68 | 0.00 | 95 | 1013.1 |
| 20260510044509 | 11 | 38 | 0.0 | 0.0 | 0.00 | 1.68 | 0.00 | 95 | 1013.1 |
| 20260510043017 | 11 | 38 | 0.0 | 0.0 | 0.00 | 1.68 | 0.00 | 95 | 1012.9 |
| 20260510041505 | 11 | 37 | 0.0 | 0.0 | 0.00 | 1.68 | 0.00 | 95 | 1012.9 |
| 20260510040005 | 11 | 38 | 0.0 | 0.0 | 0.00 | 1.68 | 1.68 | 95 | 1012.8 |
| 20260510034502 | 11 | 38 | 0.0 | 0.0 | 0.00 | 1.68 | 1.68 | 95 | 1012.7 |
| 20260510033002 | 11 | 34 | 0.0 | 0.0 | 0.00 | 1.68 | 1.68 | 95 | 1012.7 |
| 20260510031502 | 11 | 34 | 0.0 | 0.0 | 0.00 | 1.68 | 1.68 | 95 | 1013.0 |
| 20260510030045 | 11 | 34 | 0.0 | 0.0 | 0.00 | 1.68 | 1.68 | 95 | 1013.0 |
| 20260510024603 | 11 | 71 | 0.0 | 0.0 | 0.00 | 1.68 | 1.68 | 95 | 1012.8 |
| 20260510023040 | 10 | 146 | 0.0 | 1.6 | 0.00 | 1.68 | 1.68 | 95 | 1012.8 |
| 20260510021541 | 10 | 150 | 0.0 | 0.0 | 0.00 | 1.68 | 1.68 | 95 | 1012.7 |
| 20260510020022 | 10 | 150 | 0.0 | 0.0 | 0.00 | 1.68 | 1.68 | 95 | 1012.8 |
| 20260510014521 | 11 | 150 | 0.0 | 0.0 | 0.00 | 1.68 | 1.68 | 94 | 1012.8 |
| 20260510013003 | 11 | 150 | 0.0 | 0.0 | 0.00 | 1.68 | 1.68 | 94 | 1012.7 |
| 20260510011505 | 11 | 150 | 0.0 | 0.0 | 0.00 | 1.68 | 1.68 | 94 | 1012.8 |
| 20260510010044 | 11 | 74 | 0.0 | 1.6 | 0.00 | 1.68 | 1.68 | 94 | 1012.7 |
| 20260510004548 | 11 | 347 | 0.0 | 1.6 | 0.00 | 1.68 | 1.68 | 94 | 1012.7 |
| 20260510003028 | 11 | 121 | 0.0 | 0.0 | 0.03 | 1.68 | 1.68 | 94 | 1012.5 |
| 20260510001528 | 11 | 131 | 0.0 | 1.6 | 0.05 | 1.68 | 1.68 | 94 | 1012.2 |
| 20260510000012 | 11 | 101 | 0.0 | 3.2 | 0.20 | 1.68 | 1.68 | 94 | 1012.1 |
| 20260509234509 | 11 | 148 | 0.0 | 3.2 | 0.53 | 1.68 | 1.68 | 94 | 1012.3 |
| 20260509233052 | 11 | 98 | 1.6 | 14.5 | 0.61 | 1.65 | 1.65 | 94 | 1012.5 |
| 20260509231557 | 11 | 124 | 0.0 | 4.8 | 0.86 | 1.63 | 1.63 | 94 | 1012.9 |
| 20260509230028 | 11 | 245 | 0.0 | 4.8 | 0.94 | 1.42 | 1.42 | 94 | 1013.2 |
| 20260509224528 | 12 | 283 | 0.0 | 6.4 | 0.71 | 1.12 | 1.12 | 94 | 1013.2 |
| 20260509223015 | 12 | 229 | 0.0 | 6.4 | 0.64 | 1.02 | 1.02 | 93 | 1013.1 |
| 20260509221509 | 12 | 40 | 0.0 | 4.8 | 0.36 | 0.71 | 0.71 | 93 | 1013.4 |
| 20260509220050 | 12 | 99 | 0.0 | 3.2 | 0.15 | 0.51 | 0.51 | 93 | 1013.4 |
| 20260509214549 | 12 | 63 | 0.0 | 4.8 | 0.03 | 0.38 | 0.38 | 93 | 1013.5 |
| 20260509213032 | 12 | 280 | 0.0 | 6.4 | 0.03 | 0.38 | 0.38 | 93 | 1013.4 |
| 20260509211533 | 12 | 96 | 0.0 | 9.7 | 0.05 | 0.38 | 0.38 | 92 | 1013.3 |
| 20260509210016 | 12 | 60 | 0.0 | 6.4 | 0.10 | 0.36 | 0.36 | 92 | 1013.0 |
| 20260509204516 | 12 | 91 | 0.0 | 3.2 | 0.15 | 0.36 | 0.36 | 92 | 1012.8 |
| 20260509203055 | 12 | 101 | 0.0 | 3.2 | 0.18 | 0.36 | 0.36 | 92 | 1012.8 |
| 20260509201554 | 13 | 341 | 0.0 | 9.7 | 0.20 | 0.33 | 0.33 | 91 | 1013.3 |
| 20260509200045 | 13 | 155 | 0.0 | 11.3 | 0.15 | 0.28 | 0.25 | 90 | 1013.3 |
| 20260509194535 | 13 | 134 | 1.6 | 12.9 | 0.15 | 0.23 | 0.20 | 89 | 1013.1 |